When you browse on this site, cookies collect data to enhance your experience and personalize the content and advertising you see.
Visit our Privacy Policy to learn more. By continuing to use the site, you agree to this use of cookies and data.
  • Em Portugal
  • Lista de países
  • Para 7 dias
  • Temperatura da água
  • Mapas de satélite
  • Mapa do tempo
  • Widgets de tempo
  • user-avatar
    Iniciar Sessão

    Previsão horária em Pecz

    Hoje, 20 Julho, Sábado

    Tempo Temperatura Precipitação Vento Pressão Humidade
    00:00 +20°C° 0 mm 1 m/s 744 mmHg 72%
    01:00 +20°C° 0 mm 1 m/s 744 mmHg 75%
    02:00 +19°C° 0 mm 1 m/s 744 mmHg 77%
    03:00 +19°C° 0 mm 1 m/s 744 mmHg 79%
    04:00 +19°C° 0 mm 1 m/s 744 mmHg 82%
    05:00 +20°C° 0 mm 1 m/s 744 mmHg 79%
    06:00 +22°C° 0 mm 1 m/s 744 mmHg 76%
    07:00 +24°C° 0 mm 1 m/s 745 mmHg 72%
    08:00 +25°C° 0 mm 2 m/s 745 mmHg 69%
    09:00 +26°C° 0 mm 2 m/s 745 mmHg 65%
    10:00 +28°C° 0 mm 3 m/s 745 mmHg 61%
    11:00 +29°C° 0 mm 3 m/s 745 mmHg 58%
    12:00 +29°C° 0 mm 3 m/s 745 mmHg 54%
    13:00 +30°C° 0 mm 3 m/s 744 mmHg 51%
    14:00 +30°C° 0 mm 3 m/s 744 mmHg 52%
    15:00 +30°C° 0 mm 3 m/s 744 mmHg 53%
    16:00 +30°C° 0 mm 3 m/s 744 mmHg 53%
    17:00 +28°C° 0 mm 2 m/s 744 mmHg 59%
    18:00 +26°C° 0 mm 2 m/s 744 mmHg 64%
    19:00 +25°C° 0 mm 2 m/s 744 mmHg 70%
    20:00 +24°C° 0 mm 2 m/s 744 mmHg 70%
    21:00 +23°C° 0 mm 2 m/s 744 mmHg 70%
    22:00 +21°C° 0 mm 2 m/s 744 mmHg 71%
    23:00 +21°C° 0 mm 2 m/s 745 mmHg 71%

    Amanhã, 21 Julho, Domingo

    Tempo Temperatura Precipitação Vento Pressão Humidade
    00:00 +20°C° 0 mm 2 m/s 745 mmHg 71%
    01:00 +21°C° 0 mm 1 m/s 745 mmHg 71%
    02:00 +21°C° 0 mm 1 m/s 745 mmHg 71%
    03:00 +20°C° 0 mm 1 m/s 744 mmHg 72%
    04:00 +20°C° 0 mm 1 m/s 744 mmHg 72%
    05:00 +21°C° 0 mm 1 m/s 744 mmHg 71%
    06:00 +23°C° 0 mm 1 m/s 745 mmHg 69%
    07:00 +24°C° 0 mm 1 m/s 745 mmHg 67%
    08:00 +26°C° 0 mm 1 m/s 745 mmHg 63%
    09:00 +27°C° 0 mm 2 m/s 746 mmHg 58%
    10:00 +29°C° 0 mm 2 m/s 746 mmHg 53%
    11:00 +30°C° 0 mm 2 m/s 746 mmHg 51%
    12:00 +31°C° 0 mm 2 m/s 745 mmHg 48%
    13:00 +31°C° 0 mm 2 m/s 745 mmHg 46%
    14:00 +31°C° 0 mm 2 m/s 745 mmHg 49%
    15:00 +31°C° 0 mm 1 m/s 745 mmHg 52%
    16:00 +31°C° 0 mm 1 m/s 745 mmHg 54%
    17:00 +29°C° 0 mm 1 m/s 745 mmHg 58%
    18:00 +28°C° 0 mm 1 m/s 745 mmHg 63%
    19:00 +26°C° 0 mm 1 m/s 745 mmHg 67%
    20:00 +26°C° 0.1 mm 1 m/s 746 mmHg 68%
    21:00 +25°C° 0.1 mm 2 m/s 746 mmHg 70%
    22:00 +24°C° 0.1 mm 2 m/s 746 mmHg 72%
    23:00 +23°C° 0.2 mm 2 m/s 747 mmHg 76%

    Depois de amanhã, 22 Julho, Segunda-feira

    Tempo Temperatura Precipitação Vento Pressão Humidade
    00:00 +21°C° 0.2 mm 2 m/s 747 mmHg 80%
    01:00 +20°C° 0.2 mm 2 m/s 747 mmHg 83%
    02:00 +20°C° 0 mm 2 m/s 747 mmHg 85%
    03:00 +19°C° 0 mm 2 m/s 747 mmHg 86%
    04:00 +19°C° 0 mm 2 m/s 747 mmHg 87%
    05:00 +20°C° 0 mm 2 m/s 748 mmHg 83%
    06:00 +21°C° 0 mm 2 m/s 748 mmHg 80%
    07:00 +24°C° 0 mm 2 m/s 748 mmHg 76%
    08:00 +25°C° 0 mm 3 m/s 749 mmHg 68%
    09:00 +26°C° 0 mm 3 m/s 749 mmHg 61%
    10:00 +28°C° 0 mm 3 m/s 749 mmHg 53%
    11:00 +28°C° 0 mm 4 m/s 749 mmHg 51%
    12:00 +29°C° 0 mm 4 m/s 749 mmHg 48%
    13:00 +29°C° 0 mm 4 m/s 748 mmHg 46%
    14:00 +29°C° 0 mm 4 m/s 748 mmHg 47%
    15:00 +29°C° 0 mm 4 m/s 748 mmHg 48%
    16:00 +29°C° 0 mm 3 m/s 748 mmHg 49%
    17:00 +27°C° 0 mm 3 m/s 748 mmHg 55%
    18:00 +26°C° 0 mm 2 m/s 747 mmHg 62%
    19:00 +24°C° 0 mm 2 m/s 747 mmHg 68%
    20:00 +23°C° 0 mm 1 m/s 747 mmHg 68%
    21:00 +22°C° 0 mm 1 m/s 748 mmHg 68%
    22:00 +21°C° 0 mm 1 m/s 748 mmHg 69%
    23:00 +21°C° 0 mm 1 m/s 748 mmHg 69%

    23 Julho, Terça-feira

    Tempo Temperatura Precipitação Vento Pressão Humidade
    00:00 +20°C° 0 mm 1 m/s 748 mmHg 69%
    01:00 +20°C° 0 mm 1 m/s 747 mmHg 69%
    02:00 +18°C° 0 mm 2 m/s 747 mmHg 69%
    03:00 +18°C° 0 mm 2 m/s 747 mmHg 69%
    04:00 +18°C° 0 mm 2 m/s 747 mmHg 69%
    05:00 +19°C° 0 mm 2 m/s 747 mmHg 70%
    06:00 +20°C° 0 mm 3 m/s 747 mmHg 70%
    07:00 +20°C° 0 mm 3 m/s 748 mmHg 71%
    08:00 +22°C° 0 mm 3 m/s 748 mmHg 64%
    09:00 +25°C° 0 mm 3 m/s 748 mmHg 58%
    10:00 +26°C° 0 mm 3 m/s 748 mmHg 51%
    11:00 +27°C° 0 mm 2 m/s 748 mmHg 49%
    12:00 +28°C° 0 mm 2 m/s 747 mmHg 47%
    13:00 +29°C° 0 mm 2 m/s 747 mmHg 45%
    14:00 +29°C° 0 mm 2 m/s 746 mmHg 45%
    15:00 +29°C° 0 mm 2 m/s 746 mmHg 46%
    16:00 +29°C° 0 mm 2 m/s 746 mmHg 46%
    17:00 +27°C° 0 mm 2 m/s 746 mmHg 53%
    18:00 +26°C° 0 mm 1 m/s 746 mmHg 59%
    19:00 +24°C° 0 mm 1 m/s 746 mmHg 66%
    20:00 +23°C° 0 mm 1 m/s 746 mmHg 67%
    21:00 +22°C° 0 mm 1 m/s 746 mmHg 68%
    22:00 +22°C° 0 mm 1 m/s 746 mmHg 70%
    23:00 +21°C° 0 mm 1 m/s 746 mmHg 72%

    24 Julho, Quarta-feira

    Tempo Temperatura Precipitação Vento Pressão Humidade
    00:00 +21°C° 0 mm 1 m/s 746 mmHg 73%
    01:00 +20°C° 0 mm 1 m/s 746 mmHg 75%
    02:00 +20°C° 0 mm 1 m/s 746 mmHg 77%
    03:00 +19°C° 0 mm 1 m/s 746 mmHg 79%
    04:00 +19°C° 0 mm 1 m/s 745 mmHg 80%
    05:00 +20°C° 0 mm 1 m/s 746 mmHg 77%
    06:00 +21°C° 0 mm 1 m/s 746 mmHg 74%
    07:00 +22°C° 0 mm 1 m/s 746 mmHg 71%
    08:00 +24°C° 0 mm 2 m/s 746 mmHg 67%
    09:00 +25°C° 0 mm 2 m/s 746 mmHg 62%
    10:00 +26°C° 0 mm 2 m/s 747 mmHg 58%
    11:00 +27°C° 0 mm 2 m/s 746 mmHg 55%
    12:00 +28°C° 0 mm 1 m/s 746 mmHg 53%
    13:00 +29°C° 0 mm 1 m/s 746 mmHg 50%
    14:00 +29°C° 0 mm 1 m/s 746 mmHg 51%
    15:00 +29°C° 0 mm 1 m/s 745 mmHg 51%
    16:00 +29°C° 0 mm 1 m/s 745 mmHg 51%
    17:00 +28°C° 0 mm 1 m/s 745 mmHg 57%
    18:00 +26°C° 0 mm 1 m/s 745 mmHg 63%
    19:00 +25°C° 0 mm 1 m/s 745 mmHg 69%
    20:00 +24°C° 0 mm 1 m/s 745 mmHg 71%
    21:00 +23°C° 0 mm 1 m/s 745 mmHg 73%
    22:00 +20°C° 0 mm 0 m/s 745 mmHg 75%
    23:00 +20°C° 0 mm 0 m/s 745 mmHg 77%

    25 Julho, Quinta-feira

    Tempo Temperatura Precipitação Vento Pressão Humidade
    00:00 +19°C° 0 mm 0 m/s 745 mmHg 78%
    01:00 +19°C° 0 mm 0 m/s 745 mmHg 80%
    02:00 +18°C° 0 mm 0 m/s 745 mmHg 81%
    03:00 +18°C° 0 mm 0 m/s 745 mmHg 82%
    04:00 +18°C° 0 mm 0 m/s 745 mmHg 82%
    05:00 +20°C° 0 mm 0 m/s 745 mmHg 78%
    06:00 +21°C° 0 mm 0 m/s 746 mmHg 73%
    07:00 +25°C° 0 mm 1 m/s 746 mmHg 69%
    08:00 +26°C° 0 mm 1 m/s 746 mmHg 64%
    09:00 +28°C° 0 mm 1 m/s 746 mmHg 59%
    10:00 +29°C° 0 mm 1 m/s 746 mmHg 54%
    11:00 +30°C° 0 mm 1 m/s 746 mmHg 53%
    12:00 +30°C° 0 mm 1 m/s 745 mmHg 51%
    13:00 +31°C° 0 mm 2 m/s 745 mmHg 50%
    14:00 +31°C° 0 mm 2 m/s 745 mmHg 51%
    15:00 +31°C° 0 mm 2 m/s 744 mmHg 52%
    16:00 +30°C° 0 mm 2 m/s 744 mmHg 53%
    17:00 +29°C° 0 mm 1 m/s 744 mmHg 58%
    18:00 +27°C° 0 mm 1 m/s 744 mmHg 63%
    19:00 +26°C° 0 mm 1 m/s 744 mmHg 67%
    20:00 +25°C° 0 mm 1 m/s 744 mmHg 69%
    21:00 +24°C° 0 mm 1 m/s 744 mmHg 70%
    22:00 +21°C° 0 mm 0 m/s 744 mmHg 71%
    23:00 +23°C° 0 mm 1 m/s 744 mmHg 73%
    Mostrar mais